www.pogodaiklimat.ru

Погода и климат >> Архив погоды >> Мексика >> La Paz


ПОГОДА в La Paz

  • Прогноз погоды в La Paz
  • Монитор погоды в La Paz
  • Климат города

АРХИВ ПОГОДЫ в La Paz

Время (UTC), дата Ветер
(напр.,м/с)
 
Видим.   Явления Облачность Т
(С)
Тd
(С)
f
(%)
Тe
(С)
Тes
(С)
Комфортность P
(гПа)
Po
(гПа)
Тmin
(С)
Tmax
(С)
R
(мм)
R24
(мм)
S
(см)
15 18.04 Ю 3 25 км ясно +21.3 +10.4 50 +23 +27 комфорт 1014.4 1012.2
18 18.04 Ю 1 30 км ясно +33.3 +13.9 31 +34 +57 опасность
солнечного
удара
1013.9 1011.8 +16.2 +33.3
21 18.04 С 4 30 км ясно +34.2 +11.3 25 +34 +46 очень
жарко
1012.5 1010.4
00 19.04 СЗ 4 30 км ясно +32.8 +12.1 28 +33 +35 жарко 1011.2 1009.1 +16.2 +34.9
03 19.04 СЗ 2 2000 м ясно +26.8 +16.5 53 +30 +30 душно 1012.1 1010.1
06 19.04 Ю 2 2000 м ясно +23.6 +15.6 61 +27 +27 жарко 1013.2 1011.1 +16.2 +34.9
09 19.04 Ю 1 2000 м ясно +19.6 +12.7 64 +22 +22 комфорт 1012.6 1010.6
12 19.04 Ю 2 2000 м ясно +18.0 +13.4 74 +19 +19 1012.3 1010.2 +17.6 +34.9
15 19.04 ЮВ 1 25 км ясно +22.8 +11.6 49 +25 +31 комфорт 1013.3 1011.2
18 19.04 СЗ 3 30 км ясно +34.2 +11.8 26 +34 +50 очень
жарко
1013.1 1011.0 +17.2 +34.7
21 19.04 С 4 30 км ясно +35.1 +11.6 24 +35 +47 очень
жарко
1011.5 1009.4
00 20.04 С 3 30 км ясно +33.8 +14.3 31 +35 +38 очень
жарко
1011.0 1009.0 +17.2 +36.1
03 20.04 З 1 2000 м ясно +29.3 +20.0 57 +36 +36 очень
душно
1012.3 1010.2
06 20.04 ЮВ 1 2000 м ясно +25.4 +18.9 67 +30 +30 душно 1013.1 1011.1 +17.2 +36.1
09 20.04 Ю 2 2000 м ясно +20.8 +13.7 64 +24 +24 комфорт 1012.7 1010.6
12 20.04 Ю 2 2000 м ясно +19.8 +15.4 76 +23 +23 комфорт 1012.3 1010.2 +19.6 +36.1
15 20.04 Ю 1 25 км ясно +23.8 +14.3 55 +26 +32 жарко 1013.7 1011.6
18 20.04 СЗ 4 30 км ясно +30.9 +12.5 32 +26 +39 жарко 1013.2 1011.1 +19.0 +31.9
21 20.04 СВ 4 30 км ясно +33.4 +12.1 27 +33 +46 жарко 1011.3 1009.3
00 21.04 СЗ 4 30 км ясно +32.0 +15.4 37 +34 +37 душно 1009.8 1007.8 +19.0 +34.6
03 21.04 СЗ 2 2000 м ясно +26.6 +21.3 73 +34 +34 очень
душно
1010.7 1008.6
06 21.04 З 1 2000 м 1/0
[Ci fib]
+24.8 +20.5 77 +31 +31 очень
душно
1011.2 1009.1 +19.0 +34.6
09 21.04 ЮВ 1 2000 м ясно +22.2 +16.4 70 +26 +26 душно 1010.6 1008.5
12 21.04 Ю 1 2000 м ясно +19.8 +12.2 62 +22 +22 комфорт 1011.0 1008.9 +19.2 +34.6
15 21.04 Ю 2 25 км ясно +21.8 +14.7 64 +25 +30 комфорт 1012.5 1010.4
18 21.04 Ю 1 30 км ясно +33.8 +17.6 38 +37 +60 опасность
солнечного
удара
1011.4 1009.3 +18.0 +33.8
21 21.04 Ю 4 30 км ясно +37.4 +12.3 22 +37 +49 очень
жарко
1009.2 1007.1
00 22.04 ЮЗ 3 30 км ясно +35.0 +11.2 24 +35 +38 очень
жарко
1008.8 1006.8 +18.0 +37.5
03 22.04 Ю 2 2000 м ясно +26.9 +13.5 44 +29 +29 жарко 1009.8 1007.8
06 22.04 Ю 2 2000 м ясно +23.4 +12.7 51 +26 +26 жарко 1011.1 1009.0 +18.0 +37.5
09 22.04 Ю 2 2000 м ясно +20.6 +14.2 67 +24 +24 комфорт 1010.0 1008.0
12 22.04 Ю 3 2000 м ясно +19.0 +12.7 67 +20 +20 1009.6 1007.6 +18.6 +37.5
15 22.04 Ю 3 25 км ясно +22.0 +10.5 48 +24 +28 комфорт 1011.2 1009.1
18 22.04 З 2 30 км ясно +32.2 +13.6 32 +33 +52 опасность
солнечного
удара
1009.2 1007.1 +17.6 +32.5
21 22.04 СЗ 3 30 км ясно +34.0 +11.5 25 +34 +49 очень
жарко
1009.0 1007.0
00 23.04 СЗ 3 30 км ясно +33.9 +13.6 29 +35 +38 очень
жарко
1008.2 1006.2 +17.6 +37.0
03 23.04 Ю 4 2000 м ясно +28.4 +15.8 46 +31 +31 душно 1009.6 1007.5
06 23.04 Ю 2 2000 м ясно +23.4 +17.0 67 +29 +29 душно 1010.1 1008.1 +17.6 +37.0
09 23.04 Ю 2 2000 м ясно +22.4 +14.9 63 +26 +26 жарко 1009.6 1007.5
12 23.04 Ю 3 2000 м ясно +19.4 +14.3 72 +21 +21 комфорт 1009.7 1007.7 +19.2 +37.0
15 23.04 Ю 3 25 км ясно +21.8 +14.5 63 +25 +29 комфорт 1011.0 1008.9
18 23.04 ЮЗ 1 30 км ясно +34.1 +13.2 28 +35 +57 опасность
солнечного
удара
1010.7 1008.6 +17.6 +34.1
21 23.04 С 3 30 км ясно +36.8 +9.5 19 +35 +50 очень
жарко
1008.8 1006.8
00 24.04 З 4 30 км 3/0
[Ci fib]
+37.0 +12.4 23 +37 +39 очень
жарко
1007.8 1005.8 +17.6 +38.1
03 24.04 Ю 4 2000 м 1/0
[Ci fib]
+28.1 +14.7 44 +31 +31 душно 1010.1 1008.1
12 24.04 Ю 3 2000 м ясно +18.9 +13.2 69 +20 +20 1010.6 1008.5 +18.7 +38.1
15 24.04 Ю 3 25 км ясно +24.3 +8.6 37 +25 +29 комфорт 1012.3 1010.2
18 24.04 Ю 1 30 км ясно +34.0 +11.9 26 +34 +56 опасность
солнечного
удара
1012.8 1010.7 +18.7 +34.7
21 24.04 СЗ 4 30 км ясно +35.2 +10.6 22 +34 +47 очень
жарко
1010.5 1008.4
00 25.04 З 2 30 км ясно +37.2 +15.5 28 +39 +43 очень
душно
1009.2 1007.1 +18.7 +38.2
03 25.04 Ю 4 2000 м ясно +26.4 +13.4 45 +28 +28 жарко 1010.8 1008.8
06 25.04 Ю 4 2000 м ясно +21.9 +15.5 67 +26 +26 душно 1012.1 1010.1 +18.7 +38.2
09 25.04 Ю 5 2000 м ясно +18.2 +14.9 81 +18 +18 1012.0 1009.9
12 25.04 Ю 3 2000 м ясно +17.3 +13.2 77 +17 +17 1011.0 1008.9 +16.2 +38.2

 

Местоположение метеостанции La Paz (Мексика): широта 24.17 долгота -110.30 высота над уровнем моря 18 м.

В архиве по умолчанию представлена погода в La Paz за последнюю неделю. Архивные данные за месяц целиком и за предыдущие месяцы, начиная с января 2011 года, Вы можете получить, выбрав интересующий диапазон дат из раскрывающегося списка и нажав кнопку "Ввод!".

Внимание! Время в таблицах - всемирное. Для получения местного времени необходимо прибавить поправку, которая в La Paz равна -6 ч.

Смотрите также архив погоды в соседних городах и на ближайших метеорологических станциях:

Погода в Ciudad Constitucion (Мексика) (166 км)
Погода в Loreto (Мексика) (229 км)
Погода в Culiacan (Мексика) (302 км)
Погода в Choix (Мексика) (354 км)
Погода в Ciudad Obregon (Мексика) (361 км)
Погода в Santa Rosalia (Мексика) (397 км)
Погода в Colonia Juan Carras-Co (Мексика) (412 км)
Погода в Guaymas Upper Air Site (Мексика) (421 км)
Погода в Empalme (Мексика) (422 км)
Погода в Tepehuanes (Мексика) (481 км)

Пояснения к столбцам:

Ветер - указаны скорость ветра в м/с - средняя за 10 мин, порывы в срок и между сроками (в фигурных скобках) и направление, откуда дует ветер: С - северный, СВ - северо-восточный, В - восточный, ЮВ - юго-восточный, Ю - южный, ЮЗ - юго-западный, З - западный, СЗ - северо-западный.
Видимость - горизонтальная дальность видимости в метрах или километрах. При видимости от 1 до 10 км при отсутствии осадков обычно наблюдается дымка, при ухудшении видимости до 1 км и менее - туман. В сухую погоду видимость может ухудшаться дымом, пылью или мглою.
Явления - указаны атмосферные явления, наблюдавшиеся в срок или в последний час перед сроком; фигурными скобками обозначены явления, наблюдавшиеся между сроками (за 1-3 часа до срока); квадратными скобками обозначены град или гололедные отложения с указанием их диаметра в мм.
Облачность - указаны через наклонную черту общая и нижняя облачность в баллах и высота нижней границы облаков в метрах; квадратными скобками обозначены формы облаков: Ci - перистые, Cs - перисто-слоистые, Cc - перисто-кучевые, Ac - высококучевые, As - высокослоистые, Sc - слоисто-кучевые, Ns - слоисто-дождевые, Cu - кучевые, Cb - кучево-дождевые. Подробнее классификацию облаков см. в Атласе облаков (PDF).
T - Температура воздуха - температура, измеренная на высоте 2 м над землей.
Td - Температура точки росы - температура, при понижении до которой содержащийся в воздухе водяной пар достигнет насыщения.
f - Относительная влажность воздуха - влажноcть воздуха, измеренная на высоте 2 м над землей.
Te - Эффективная температура - температура, которую ощущает одетый по сезону человек в тени. Характеристика душности погоды. При расчете учитывается влияние влажности воздуха и скорости ветра на теплоощущения человека.
Tes - Эффективная температура на солнце - температура, которую ощущает человек, с поправкой на солнечный нагрев. Характеристика знойности погоды. Зависит от высоты солнца над горизонтом, облачности и скорости ветра. Ночью, в пасмурную погоду, а также при ветре 12 м/с и более поправка равна нулю.
P - Атмосферное давление - приведенное к уровню моря атмосферное давление.
Po - Атмосферное давление - измеренное на уровне метеостанции атмосферное давление.
Tmin - Минимальная температура - минимум температуры воздуха на высоте 2 м над землей.
Tmax - Максимальная температура - максимум температуры воздуха на высоте 2 м над землей.
R - Количество осадков - Количество выпавших осадков за период времени, мм. При наведении курсора мыши на число - период времени, за который выпало указанное количество осадков.
R24 - Количество осадков - Количество выпавших осадков за 24 часа, мм.
S - Снежный покров - Высота снежного покрова, см. При наведении курсора мыши на число - состояние снежного покрова и степень покрытия местности в баллах.